Home   Weather   Chesapeake   Past weeks

Flag for USA Past Weather in Chesapeake, Virginia, USA — Yesterday and Last 2 Weeks

Now
43 °F

Overcast.


Feels Like: 43 °F
Forecast: 40 / 47 °F
Wind: No wind

Location: Chesapeake Municipal Airport

Current Time: Jan 16, 2017 at 12:44:08 pm

Latest Report: Jan 16, 2017 at 12:12 pm


Visibility: 10 mi

Pressure: 30.45 "Hg

Humidity: 76%

Dew Point: 36 °F

Location of ChesapeakeLocation

Past Weather in Chesapeake — Graph

°F

Chesapeake Temperature Yesterday

Maximum temperature yesterday: 45 °F (at 11:12 am)
Minimum temperature yesterday: 36 °F (at 8:52 pm)
Average temperature yesterday: 42 °F

High & Low Weather Summary for the Past Weeks

 TemperatureHumidityPressure
High70 °F (Jan 12, 11:53 am)100% (Jan 7, 1:13 am)30.84 "Hg (Jan 7, 1:13 am)
Low10 °F (Jan 9, 7:13 am)22% (Jan 10, 2:34 pm)29.59 "Hg (Jan 4, 1:15 am)
Average41 °F78%30.29 "Hg
* Reported Jan 1 11:15 am — Jan 16 11:12 am, Chesapeake, Weather by CustomWeather, © 2017

Note: Actual official high and low records may vary slightly from our data, if they occured in-between our weather recording intervals... More about our weather records

Advertising

Chesapeake Weather History for the Previous 24 Hours

Scroll right to see more
 ConditionsComfort  
Time TempWeatherWind HumidityBarometerVisibility
11:12 am
Mon, Jan 16
41 °FOvercast.3 mph87%30.47 "Hg10 mi
10:52 am41 °FOvercast.5 mph87%30.49 "Hg10 mi
10:12 am39 °FOvercast.No wind93%30.49 "Hg10 mi
9:52 am39 °FOvercast.No wind87%30.48 "Hg10 mi
9:12 am39 °FOvercast.3 mph87%30.48 "Hg10 mi
8:52 am39 °FOvercast.3 mph93%30.48 "Hg10 mi
8:12 am39 °FDrizzle. More clouds than sun.No wind87%30.46 "Hg10 mi
7:52 am37 °FOvercast.No wind93%30.45 "Hg10 mi
7:12 am37 °FOvercast.No wind93%30.45 "Hg10 mi
6:52 am37 °FMostly cloudy.No wind93%30.45 "Hg10 mi
6:12 am37 °FLight rain. Mostly cloudy.3 mph93%30.44 "Hg7 mi
5:52 am39 °FRain. Mostly cloudy.3 mph93%30.44 "Hg5 mi
5:32 am39 °FLight rain. Overcast.5 mph87%30.44 "Hg10 mi
5:12 am39 °FLight rain. Overcast.3 mph87%30.44 "Hg7 mi
4:52 am39 °FOvercast.No wind87%30.44 "Hg10 mi
4:12 am39 °FOvercast.3 mph87%30.43 "Hg10 mi
3:52 am39 °FRain. Overcast.3 mph87%30.44 "Hg7 mi
3:13 am39 °FOvercast.No wind93%30.44 "Hg10 mi
2:52 am39 °FDrizzle. Mostly cloudy.No wind93%30.44 "Hg10 mi
2:12 am39 °FLight rain. Mostly cloudy.No wind87%30.43 "Hg10 mi
1:52 am39 °FDrizzle. Overcast.No wind81%30.43 "Hg10 mi
1:12 am39 °FOvercast.No wind81%30.43 "Hg10 mi
12:52 am39 °FMostly cloudy.No wind81%30.43 "Hg10 mi
12:32 am39 °FMostly cloudy.No wind81%30.43 "Hg10 mi
12:12 am39 °FMostly cloudy.No wind81%30.43 "Hg10 mi
11:52 pm
Sun, Jan 15
39 °FOvercast.No wind81%30.43 "Hg10 mi
11:32 pm39 °FOvercast.No wind75%30.43 "Hg10 mi
11:12 pm39 °FPassing clouds.No wind70%30.42 "Hg10 mi
10:52 pm37 °FPassing clouds.No wind81%30.42 "Hg10 mi
10:12 pm37 °FMostly cloudy.No wind70%30.42 "Hg10 mi
9:52 pm37 °FPartly cloudy.No wind87%30.42 "Hg10 mi
9:12 pm36 °FPassing clouds.No wind87%30.41 "Hg10 mi
8:52 pm36 °FPassing clouds.No wind81%30.42 "Hg10 mi
8:12 pm37 °FPassing clouds.No wind75%30.41 "Hg10 mi
7:52 pm37 °FClear.No wind70%30.40 "Hg10 mi
7:12 pm39 °FClear.3 mph56%30.40 "Hg10 mi
6:52 pm39 °FClear.No wind61%30.40 "Hg10 mi
6:32 pm39 °FClear.3 mph65%30.40 "Hg10 mi
6:12 pm39 °FClear.3 mph65%30.39 "Hg10 mi
5:52 pm39 °FPassing clouds.No wind61%30.40 "Hg10 mi
5:12 pm41 °FClear.No wind53%30.39 "Hg10 mi
4:52 pm43 °FSunny.5 mph49%30.38 "Hg10 mi
4:12 pm43 °FSunny.5 mph57%30.37 "Hg10 mi
3:52 pm45 °FSunny.5 mph57%30.36 "Hg10 mi
3:32 pm45 °FScattered clouds.8 mph61%30.36 "Hg10 mi
3:13 pm45 °FMore clouds than sun.8 mph61%30.36 "Hg10 mi
2:52 pm45 °FMostly cloudy.3 mph61%30.36 "Hg10 mi
2:12 pm45 °FOvercast.7 mph66%30.35 "Hg10 mi
1:52 pm43 °FOvercast.7 mph71%30.36 "Hg10 mi
1:32 pm43 °FOvercast.8 mph71%30.36 "Hg10 mi
1:13 pm43 °FOvercast.6 mph71%30.37 "Hg10 mi
12:52 pm43 °FMore clouds than sun.9 mph71%30.37 "Hg10 mi
12:12 pm43 °FMore clouds than sun.8 mph76%30.37 "Hg10 mi
Weather by CustomWeather, © 2017

See weather overviewHow to use our weather pages